GFSGL_sfc_30mbdewp_159.txt.gz
Dewpoint
69 69 70 71 72 72 71 69 66 64 63 63 64 64 63 64 65 64 62 61 59 57 55 51 52 55 55 55 54 54 53 53 53 53 54 55 55 56 56 56 56 56 56
70 70 71 72 73 73 70 67 66 64 66 64 64 62 62 64 64 62 60 58 57 55 52 52 51 54 56 55 55 55 55 56 55 53 55 55 55 56 56 56 55 55 55
69 70 71 72 72 72 71 68 67 67 65 64 62 61 63 64 63 61 60 59 57 54 52 51 50 55 56 56 57 56 56 56 56 56 55 55 55 56 56 56 56 56 57
70 70 71 72 72 71 70 67 67 65 64 63 61 62 64 64 61 60 59 59 56 52 53 51 51 55 56 57 57 57 57 56 55 54 53 54 55 55 56 55 55 56 56
70 71 72 72 72 70 68 67 66 65 64 62 61 64 64 61 58 59 59 58 54 53 52 50 51 57 57 57 57 57 56 54 53 53 53 53 53 54 55 56 56 56 57
71 71 72 72 70 69 68 67 67 65 62 60 62 62 62 58 57 58 58 55 54 53 50 50 56 55 55 56 56 55 55 53 53 52 53 54 55 55 56 57 56 55 54
71 71 71 70 68 68 68 66 64 62 60 61 62 62 61 59 57 58 55 54 54 52 49 53 55 54 55 55 54 54 54 54 54 54 53 53 54 56 57 57 56 56 56
70 70 69 68 67 66 65 63 61 61 60 61 62 63 62 61 58 58 53 55 53 49 49 54 55 54 54 51 50 52 53 52 53 53 55 55 57 57 57 58 57 57 58
69 68 68 68 67 65 63 62 61 60 61 62 63 63 62 60 58 53 54 53 47 48 49 54 54 53 50 48 50 52 51 51 51 53 56 56 58 58 59 58 56 56 55
67 68 68 67 66 64 63 63 62 61 61 61 62 61 61 61 54 53 48 45 45 45 48 52 52 49 47 46 47 49 49 49 50 53 55 56 58 58 59 59 58 56 57
66 66 67 66 66 65 64 63 61 61 61 62 61 62 61 60 56 46 44 46 43 43 45 48 49 45 44 44 44 44 45 48 50 52 54 55 55 56 58 59 59 58 57
66 66 66 66 65 64 63 62 61 61 62 62 61 60 58 57 48 43 44 43 46 47 48 47 47 43 42 43 42 42 44 47 49 50 51 51 52 53 56 57 59 58 59
65 65 65 66 64 63 62 61 60 61 59 60 60 59 58 54 46 43 43 43 44 44 45 43 41 39 40 42 41 41 43 43 45 46 48 49 51 51 52 53 57 57 56
64 64 64 64 63 62 61 60 59 59 60 61 59 58 57 49 44 45 44 44 43 41 42 37 34 35 35 39 41 40 41 41 41 42 45 47 48 48 48 50 50 53 53
64 63 63 62 62 62 61 59 59 61 59 58 55 56 53 45 42 43 43 42 41 40 39 32 28 28 29 32 37 39 39 40 40 40 40 41 44 45 44 47 47 47 48
63 62 62 61 60 60 58 54 50 51 51 51 53 56 46 42 41 42 42 40 38 36 32 27 25 25 27 28 33 36 37 38 39 39 39 40 39 38 37 41 45 45 43
63 62 59 60 58 58 57 57 56 52 47 48 50 44 41 42 42 42 39 37 36 33 28 26 25 25 26 27 30 34 35 38 39 38 38 37 37 36 36 35 37 36 37
62 60 60 59 58 57 57 57 57 54 52 47 42 41 40 41 42 42 42 41 35 31 29 28 28 29 28 28 30 34 35 36 36 35 35 35 35 33 32 34 34 35 33
62 60 60 59 58 58 58 57 56 55 53 45 41 42 42 41 42 42 43 39 35 32 30 28 27 30 31 30 31 34 36 35 35 34 32 32 33 32 31 30 31 32 32
61 60 60 59 58 57 57 57 56 55 53 45 41 41 42 42 42 44 43 40 35 32 31 27 24 25 30 33 32 32 33 34 34 33 33 32 30 30 29 28 29 28 29
59 60 59 59 58 57 57 55 56 55 53 46 44 43 43 43 42 42 42 39 35 33 31 27 22 22 24 27 32 32 31 33 34 35 34 33 32 31 31 30 29 29 28
57 57 58 57 56 55 56 56 55 54 52 48 45 45 44 44 42 41 42 38 36 34 31 29 24 21 25 28 30 31 31 32 34 35 35 33 32 32 32 30 29 28 27
54 54 54 55 55 55 55 55 54 52 50 50 50 49 48 46 42 41 41 38 36 34 31 28 24 21 25 28 30 32 31 33 34 35 35 33 32 32 32 30 29 28 29
54 54 54 54 54 54 54 54 54 52 51 50 50 49 46 43 40 41 39 37 36 33 30 27 24 24 26 27 30 31 32 34 35 34 35 33 32 33 32 31 30 30 29
54 54 54 55 54 53 53 53 53 50 49 47 47 45 41 39 40 41 39 37 35 32 29 26 23 24 27 30 31 32 32 31 33 33 33 33 33 33 32 30 30 29 30
53 52 52 51 52 52 52 52 45 45 44 46 44 39 38 39 39 40 38 36 34 31 28 26 24 24 25 26 31 31 31 31 32 32 32 31 31 30 30 30 29 28 29

GFSGL_sfc_30mbdewp_162.txt.gz
Dewpoint
69 69 70 71 71 73 71 72 73 72 71 67 66 65 65 64 62 63 63 59 57 56 56 53 52 52 49 50 53 54 53 51 50 52 53 54 57 57 57 58 58 58 58
68 70 71 71 71 72 72 72 73 72 68 66 65 65 65 62 62 63 62 55 56 55 55 53 53 51 52 52 53 55 55 54 53 55 56 55 55 56 56 56 57 57 57
68 69 70 71 72 73 73 73 72 70 68 66 66 65 64 62 63 63 60 57 57 56 55 54 53 52 51 54 57 55 53 54 54 54 54 55 55 55 55 56 57 58 58
67 69 70 71 72 73 73 73 72 71 68 66 66 64 63 62 63 62 58 57 58 56 55 55 53 50 51 57 56 55 55 55 54 54 54 53 54 55 56 56 55 56 57
68 69 70 71 72 72 73 72 71 70 68 66 65 64 62 62 60 59 57 57 58 57 56 55 50 52 57 57 55 55 56 54 54 54 52 52 52 53 54 56 56 56 57
69 70 71 72 73 73 72 71 70 68 67 66 64 62 61 59 57 56 59 58 58 57 56 53 50 50 53 55 56 54 54 54 55 52 51 51 51 53 55 55 56 56 54
70 71 72 72 71 71 70 70 69 68 67 65 62 61 60 60 56 57 58 58 57 56 55 50 48 47 54 54 51 52 55 55 54 53 51 51 52 54 55 54 56 56 56
71 71 71 70 70 70 70 69 69 68 65 62 61 61 61 61 58 57 58 59 58 56 50 49 49 52 54 48 48 51 54 54 53 53 53 54 56 57 59 57 57 58 58
70 71 70 70 69 69 68 67 66 64 62 61 60 61 61 60 58 58 56 56 54 51 48 49 52 53 49 46 46 51 53 53 53 54 54 55 55 57 59 59 57 56 55
69 70 70 70 69 68 68 66 65 63 62 59 60 61 61 59 58 54 53 53 49 46 45 44 51 47 43 44 45 49 49 49 53 53 53 53 54 54 59 59 58 56 56
68 69 69 70 69 69 67 66 65 63 61 61 61 60 60 61 58 50 43 47 45 41 42 41 43 42 40 42 42 45 44 46 50 51 52 52 52 52 53 56 58 58 57
68 68 69 70 68 68 67 65 64 62 61 61 60 60 59 61 55 44 43 41 44 45 42 41 44 37 37 40 42 41 43 45 45 44 50 49 49 49 51 52 56 57 58
68 68 68 68 67 67 65 64 62 62 58 58 58 57 57 59 48 42 41 41 45 41 42 38 36 35 34 38 41 42 43 43 43 42 41 47 47 48 50 50 52 55 56
66 67 67 67 66 66 64 63 60 59 56 57 56 57 57 55 50 47 46 45 44 41 42 39 31 32 33 34 38 40 41 42 41 40 40 40 47 46 45 49 49 50 52
66 66 66 65 65 64 61 59 61 60 59 58 56 55 55 52 47 44 43 40 37 36 37 31 27 26 27 28 33 36 37 39 39 38 37 37 36 37 38 46 47 46 48
64 63 63 63 63 62 59 56 49 51 51 53 54 55 47 43 41 40 37 35 34 32 31 27 25 25 25 26 30 32 34 37 38 36 34 34 34 33 31 35 37 41 46
62 62 61 61 61 60 58 57 54 50 48 50 50 43 42 42 41 38 34 32 31 32 28 28 28 27 26 26 28 31 32 35 36 33 33 32 32 32 32 30 34 33 34
62 61 60 60 60 60 59 58 57 56 53 47 41 42 41 42 39 38 38 38 33 31 30 29 28 29 29 27 29 32 33 32 33 33 32 31 31 29 28 28 28 31 31
57 56 57 56 56 57 58 58 57 56 51 45 41 42 42 42 42 41 41 37 33 31 29 28 26 25 28 31 31 32 34 33 34 34 32 32 31 29 29 28 28 29 29
60 60 58 57 57 57 57 57 56 56 51 46 43 41 42 42 42 43 41 37 34 32 29 26 24 24 27 29 32 32 32 33 34 33 33 32 32 31 29 29 29 28 28
54 57 58 55 54 53 53 54 56 54 51 48 45 44 43 43 42 42 39 37 34 32 30 27 21 22 23 26 30 29 29 30 32 33 33 32 32 31 31 30 29 27 29
52 53 54 53 53 53 54 54 53 53 53 48 46 43 43 43 42 41 39 37 35 33 31 29 23 22 25 27 29 29 27 28 31 33 32 31 30 31 30 29 29 29 28
51 51 51 52 51 54 54 54 54 53 51 48 47 43 43 44 42 40 38 37 35 32 29 25 23 23 26 28 29 29 28 30 33 33 33 31 30 31 30 29 29 29 30
52 51 50 50 52 52 53 53 53 52 50 49 47 47 48 47 43 40 37 36 34 31 27 25 24 26 28 27 29 28 30 33 34 32 34 32 31 32 30 30 29 31 29
50 51 51 52 51 53 53 53 51 51 51 50 50 49 46 45 39 38 37 36 33 29 27 24 24 26 29 30 31 31 32 31 33 32 33 32 32 31 31 29 30 30 31
51 50 49 49 49 51 53 54 51 50 49 50 47 44 42 39 39 38 36 34 31 28 27 26 26 27 27 27 30 30 30 30 32 32 33 31 31 29 29 29 30 28 30

GFSGL_sfc_30mbdewp_165.txt.gz
Dewpoint
71 71 73 74 74 75 74 74 73 73 74 73 71 68 66 66 66 65 65 63 60 58 57 56 55 56 53 52 50 50 50 51 52 53 54 56 58 58 57 58 57 57 58
71 72 73 74 74 74 75 74 74 75 74 74 70 68 66 66 65 64 63 61 57 57 56 56 55 54 55 55 50 53 53 55 54 55 56 56 56 56 56 55 56 57 58
70 73 74 74 75 75 75 75 75 75 74 73 70 68 68 66 64 64 63 61 58 56 56 56 55 55 55 53 54 54 53 54 54 54 54 54 55 54 54 55 55 56 58
69 71 73 73 74 74 75 74 74 75 73 71 69 69 67 65 64 64 61 60 58 57 57 57 56 54 53 52 54 55 55 55 54 54 54 54 53 54 54 53 54 55 57
69 71 72 72 73 73 74 74 74 73 72 71 68 67 66 65 63 62 60 58 57 58 58 57 56 53 51 53 53 55 54 52 54 55 54 53 52 51 51 52 53 54 55
69 70 71 72 72 73 73 73 73 72 71 69 67 66 65 62 59 59 58 56 57 58 57 56 56 52 51 52 55 52 52 53 55 55 53 53 52 52 53 53 54 53 52
70 70 71 72 73 73 73 73 72 71 69 68 68 66 63 62 57 56 55 54 56 56 57 57 52 48 52 54 52 50 51 54 55 54 53 53 52 52 52 53 56 54 54
70 71 73 74 73 72 73 72 70 70 69 68 67 64 62 61 57 57 57 58 58 58 58 54 51 52 52 49 47 48 51 53 54 54 54 54 53 53 53 57 58 57 58
71 72 72 72 72 71 70 70 70 69 68 66 64 63 61 62 58 57 58 56 56 57 54 51 50 49 45 43 46 48 50 51 51 53 53 53 53 53 54 54 57 57 55
71 71 72 71 71 70 70 70 70 68 66 63 62 63 61 61 58 57 57 56 53 51 50 49 48 47 40 40 45 46 47 48 49 50 52 50 51 51 52 53 53 54 55
69 70 71 71 70 70 70 69 67 65 64 63 61 62 61 60 59 54 51 52 50 46 44 44 45 36 35 36 40 46 43 44 48 49 45 49 49 49 51 52 53 56 53
68 69 70 70 70 71 68 67 66 64 63 62 62 60 59 62 57 49 43 40 43 44 44 41 39 31 33 34 38 41 41 45 45 43 43 44 46 45 47 51 53 54 56
69 70 70 70 69 69 67 66 66 64 62 61 61 60 60 60 55 43 41 40 43 42 43 39 35 34 34 35 39 40 42 41 40 38 38 39 44 47 49 49 51 53 54
68 69 69 69 68 68 67 65 65 63 62 60 59 59 59 60 53 47 44 44 44 44 41 41 33 30 31 35 34 37 38 41 41 37 36 38 36 37 37 49 48 49 51
67 67 68 67 67 65 59 58 63 57 58 60 59 60 59 59 46 42 43 42 36 35 37 34 30 29 29 29 31 34 35 38 37 35 34 36 34 34 35 39 41 46 47
63 64 65 66 66 64 61 57 50 52 54 55 54 55 49 45 37 34 33 32 31 32 34 30 30 30 29 29 31 32 33 36 35 34 36 36 33 31 31 32 36 38 40
58 63 63 63 64 63 62 60 57 53 51 47 44 43 42 38 35 34 32 31 30 31 30 31 31 31 30 29 30 32 32 33 38 34 34 35 34 33 32 29 32 35 33
60 61 62 62 61 61 60 59 57 55 54 48 42 42 39 36 34 34 34 37 35 32 31 30 29 30 30 31 31 33 34 33 35 34 33 34 33 33 31 30 29 31 32
59 58 57 54 55 59 60 58 56 56 53 48 42 42 40 37 38 39 41 40 34 31 29 28 29 28 29 31 33 33 35 33 35 34 34 33 33 34 33 32 29 30 30
57 57 56 56 56 53 55 55 56 56 51 47 44 41 41 40 39 42 41 37 34 31 29 26 26 27 29 31 32 31 30 31 33 33 33 32 33 32 30 31 30 29 31
52 54 57 55 53 54 55 52 56 57 51 47 45 44 42 43 43 42 39 37 34 32 31 28 23 26 26 28 30 29 28 29 31 33 33 32 32 32 31 30 30 29 30
49 52 51 49 50 52 52 55 56 56 53 48 46 43 42 44 42 40 38 37 35 33 31 30 25 26 28 29 30 30 28 29 32 33 33 32 31 32 31 30 30 30 29
47 47 48 49 49 51 50 51 52 53 52 48 45 43 43 44 42 40 38 36 35 32 29 26 26 27 29 30 30 29 28 29 33 33 34 32 31 32 30 30 30 30 31
48 47 46 46 48 49 53 51 54 54 51 48 46 45 45 46 43 41 37 36 33 30 28 27 29 31 30 29 29 27 29 32 34 33 37 33 32 32 30 30 30 32 31
47 47 47 47 48 51 52 52 53 52 51 49 46 47 47 46 42 40 38 36 32 29 28 27 29 32 32 30 30 30 31 30 33 32 36 34 32 31 31 30 30 31 32
50 50 50 50 51 53 55 52 51 51 51 49 48 47 45 43 43 39 37 34 31 29 28 29 31 31 30 27 29 30 30 30 32 31 33 33 32 29 30 30 31 30 32

GFSGL_sfc_30mbdewp_168.txt.gz
Dewpoint
74 74 74 75 76 76 75 75 73 75 74 74 74 71 70 69 68 68 67 67 65 64 61 59 60 59 59 58 57 56 53 54 54 54 55 56 57 57 57 56 56 55 55
72 73 74 75 76 76 76 75 75 74 75 76 74 72 70 69 69 68 67 65 64 61 60 59 59 58 59 59 57 54 55 56 55 54 54 55 56 56 56 55 54 55 55
68 73 73 75 75 76 76 76 76 76 75 75 75 71 70 69 69 68 67 66 62 60 59 58 59 59 59 58 55 56 56 57 54 53 54 56 55 53 53 55 54 54 54
68 72 73 74 75 76 76 76 76 76 75 75 73 72 70 70 69 67 67 64 62 59 60 59 59 59 55 55 54 56 56 54 52 53 56 53 52 52 53 52 52 52 52
68 71 73 74 75 76 76 76 76 75 75 73 71 70 70 70 67 67 65 62 61 60 59 59 59 57 55 53 55 55 53 51 52 55 55 53 50 51 51 52 51 51 53
69 72 73 75 75 75 75 75 75 75 74 73 69 69 70 67 66 65 63 61 59 59 59 59 60 56 55 56 55 52 51 52 54 55 53 51 49 51 51 50 50 51 53
71 72 73 74 74 74 75 74 75 74 73 72 70 69 67 64 60 59 57 57 56 59 60 59 57 53 57 55 53 51 52 53 55 54 54 51 50 51 50 49 50 53 56
72 72 73 74 74 75 75 75 74 73 72 71 70 68 66 59 57 56 55 58 58 59 60 59 56 55 49 47 48 50 51 54 53 51 53 52 51 52 50 52 52 53 57
72 72 74 75 75 75 74 73 73 71 70 69 68 66 65 59 57 57 57 57 58 59 60 57 56 54 43 41 44 49 50 50 49 48 50 52 50 49 50 52 51 52 51
72 75 75 74 73 71 71 72 72 71 69 68 67 65 64 62 57 57 58 59 57 56 54 48 40 37 34 37 42 48 49 45 47 47 51 50 49 48 49 52 52 50 51
74 73 72 72 71 71 71 72 70 68 67 66 64 64 64 63 57 55 54 56 52 49 48 50 41 34 34 34 36 46 42 44 47 47 49 45 48 50 49 51 53 53 52
72 72 72 71 70 71 70 68 67 67 66 65 64 64 64 61 55 50 44 40 40 47 48 46 42 31 32 34 38 38 40 44 43 44 41 41 42 40 48 50 52 53 55
71 71 71 71 71 69 68 68 67 67 65 64 63 62 64 58 53 45 41 38 39 44 48 41 39 35 35 39 37 39 42 41 42 41 37 38 38 37 45 50 51 51 53
72 71 71 70 69 69 68 67 66 65 65 63 63 63 62 61 52 47 45 42 42 46 45 47 43 35 33 34 39 41 39 40 41 40 39 39 41 35 37 38 50 47 48
70 70 69 69 69 64 59 61 65 58 61 63 62 61 60 61 53 50 50 46 41 36 35 45 40 37 36 37 39 39 39 40 40 40 39 38 37 36 34 36 37 47 47
68 67 66 67 66 63 60 55 52 53 53 57 61 62 54 51 34 32 29 28 29 31 39 38 37 37 36 35 36 38 38 37 42 40 40 39 39 37 36 34 36 38 40
63 65 66 65 66 64 60 59 54 46 44 44 45 42 39 34 32 29 29 30 30 32 38 36 36 36 36 37 36 37 38 40 42 40 39 38 38 39 37 36 35 36 36
61 60 62 62 64 64 63 61 57 55 49 44 41 37 34 32 32 32 32 35 37 35 35 34 34 34 34 36 36 37 38 37 38 38 37 38 36 36 35 35 35 35 36
56 56 58 60 61 62 61 60 57 57 51 45 40 38 36 35 36 38 40 45 37 34 33 34 34 35 35 36 37 37 39 36 37 40 39 38 39 35 33 35 32 32 36
59 55 57 57 58 59 59 58 58 55 50 46 43 38 39 40 41 44 45 40 36 33 32 30 32 33 33 35 36 37 34 36 36 37 38 38 37 37 35 34 33 32 33
52 53 55 54 52 53 54 55 57 56 51 48 46 42 40 41 44 44 41 39 35 35 34 32 29 32 34 35 35 34 32 34 35 36 37 37 35 37 35 34 35 32 32
53 50 51 51 54 56 54 56 57 55 50 48 47 43 41 42 44 42 40 38 37 36 34 33 31 32 33 35 34 33 31 32 35 36 37 36 35 36 35 33 34 35 32
46 52 49 51 52 52 54 56 56 56 52 48 45 43 43 45 43 41 39 37 37 34 31 31 32 32 34 34 32 32 31 32 37 37 40 38 35 35 34 34 34 35 34
46 46 46 49 50 52 53 55 56 55 52 46 45 45 46 44 40 40 39 37 35 32 32 34 35 34 33 31 31 29 31 33 36 35 38 39 34 35 34 34 34 35 35
48 48 49 51 53 50 51 54 54 54 51 48 46 46 47 44 42 40 39 37 34 32 31 34 35 34 31 30 30 30 31 30 33 32 35 37 35 34 34 33 34 34 36
51 50 50 50 51 53 54 55 55 53 50 48 48 48 45 42 43 41 39 35 32 31 32 34 34 32 29 28 30 29 29 30 31 31 33 36 35 33 35 34 34 34 33

GFSGL_sfc_30mbdewp_171.txt.gz
Dewpoint
72 73 72 73 75 75 73 73 73 73 72 74 74 73 71 70 69 69 67 67 67 65 62 59 57 59 59 58 58 57 52 53 54 53 55 52 55 55 55 52 53 53 54
71 72 74 74 74 75 75 74 75 72 74 74 73 72 70 69 69 68 67 68 67 64 61 59 59 59 58 59 57 53 54 57 56 51 51 53 56 54 51 50 51 53 53
71 73 73 74 75 75 75 76 75 75 74 75 73 71 70 69 69 68 68 67 65 63 61 59 58 58 59 56 56 54 57 55 52 51 51 55 55 53 50 50 51 51 52
70 73 74 74 75 75 76 76 76 75 75 75 73 72 70 69 69 69 68 67 63 60 59 59 58 59 56 54 53 56 53 51 50 51 53 55 53 51 50 50 49 51 51
65 71 72 74 75 75 76 76 76 76 75 75 73 71 70 69 68 68 67 65 62 59 59 59 59 57 54 54 54 53 50 49 50 53 53 52 51 49 49 50 49 50 51
66 67 73 73 75 75 76 76 76 75 75 73 71 70 70 69 69 67 67 63 61 59 58 60 59 56 55 56 55 51 51 52 52 52 50 51 50 49 49 50 50 49 48
66 70 74 74 75 76 75 75 75 75 74 71 70 70 69 67 63 63 63 59 58 58 59 59 58 57 53 50 47 48 51 51 54 51 48 50 50 48 49 49 50 50 50
71 74 75 75 74 74 74 74 74 73 72 71 70 69 66 60 60 57 57 56 57 58 59 60 58 50 44 42 41 45 48 51 49 48 48 49 51 50 49 51 52 52 53
73 74 74 74 74 74 74 73 73 72 71 70 69 67 62 58 58 57 57 57 57 59 55 55 48 41 39 37 38 44 45 47 46 47 49 51 53 51 51 51 50 50 49
73 74 75 75 74 74 73 72 72 71 70 69 68 66 60 58 58 56 59 58 55 53 43 36 34 30 32 35 36 41 44 42 43 46 47 48 48 48 51 51 51 50 50
75 74 74 73 72 72 72 72 71 70 68 67 66 65 62 59 57 56 58 53 49 48 50 43 35 33 34 33 36 37 42 43 44 44 39 40 42 39 43 51 51 52 50
73 72 72 71 71 71 71 70 68 67 66 65 64 65 62 58 55 50 50 45 45 44 49 45 41 32 32 35 38 40 40 41 42 41 39 37 39 37 37 50 51 51 52
71 71 70 70 71 69 68 67 67 66 65 63 64 63 59 55 50 44 41 38 41 46 48 41 39 39 38 39 41 38 38 40 40 39 39 38 38 41 37 43 49 48 51
71 71 71 70 69 68 68 67 67 66 64 64 64 63 58 54 52 47 42 40 44 46 46 40 45 42 41 40 42 39 38 42 42 40 40 40 39 40 33 37 43 46 44
70 70 70 69 68 62 56 56 62 57 60 64 64 63 60 55 55 51 47 48 48 34 36 43 39 37 36 37 41 39 38 40 42 41 39 38 37 39 39 35 36 41 42
69 69 69 67 63 59 57 53 45 48 54 58 62 62 58 59 54 49 42 30 31 33 42 37 37 38 37 37 37 39 38 39 39 38 38 37 36 37 37 37 37 36 38
68 67 67 66 64 60 57 55 54 45 43 45 50 53 53 39 33 30 28 31 32 38 36 35 35 35 36 37 37 38 35 37 39 38 37 38 37 34 35 34 34 37 36
66 66 66 66 64 61 59 56 52 50 49 44 37 36 34 32 31 31 33 36 35 37 34 34 34 34 37 37 36 37 36 36 38 39 39 38 39 36 34 33 33 34 37
59 59 61 63 64 64 62 57 56 49 45 38 35 34 35 34 35 38 40 45 37 35 33 32 36 34 34 35 37 40 37 36 37 37 38 38 36 39 36 33 32 33 35
58 59 60 61 61 62 62 59 56 49 43 39 36 35 38 40 40 42 46 36 34 33 33 31 34 35 36 35 34 38 36 36 36 37 37 38 35 38 36 35 32 32 33
58 55 58 61 61 61 59 59 52 49 46 43 39 39 39 40 43 45 40 37 35 33 32 33 32 33 35 36 33 34 35 36 36 37 39 39 35 35 36 36 35 33 33
53 54 55 55 56 57 58 58 55 51 49 46 42 39 38 41 46 39 37 36 36 33 34 34 34 35 35 33 32 32 32 35 36 39 39 39 38 36 36 34 36 36 34
54 51 52 54 55 56 57 58 57 54 50 47 44 41 40 41 44 40 37 36 33 33 37 36 36 35 34 32 31 32 31 33 36 36 36 38 38 35 35 35 35 35 36
50 52 52 54 54 55 56 57 57 53 49 46 44 43 44 43 39 38 38 36 34 35 36 35 33 32 31 31 32 31 31 32 34 32 34 36 37 35 35 35 36 37 34
51 52 53 53 54 55 55 56 55 48 46 45 45 46 43 40 40 39 37 35 35 35 36 35 33 31 30 29 29 30 30 30 31 31 33 36 35 34 36 36 35 32 33
52 52 52 53 54 55 55 55 55 51 47 46 47 46 43 41 41 39 37 32 33 35 37 36 32 29 28 28 28 30 30 30 30 31 35 35 36 36 36 35 31 31 29